Location: Newark
(25.7634°N, 80.1913°W)
Time: 09:35:20
(UTC+00:00)

Hubble Space Telescope - Visible Passes

Search period start: 27 January 2020 00:00
Search period end: 06 February 2020 00:00
Orbit: 536 x 540 km, 28.5° (Epoch: 25 January)

Date Brightness Start Highest point End Pass type
(mag) Time Alt. Az. Time Alt. Az. Time Alt. Az.
27 Jan 3.0 10:49:17 10° SSW 10:52:27 21° SSE 10:55:37 10° ESE visible
28 Jan 2.5 10:39:03 14° SSW 10:41:46 27° SSE 10:45:18 10° E visible
29 Jan 2.1 10:29:40 26° SSW 10:31:06 35° SSE 10:34:53 10° E visible
30 Jan 1.5 10:20:06 43° S 10:20:27 44° SSE 10:24:24 10° E visible
31 Jan 1.5 10:10:26 49° SE 10:10:26 49° SE 10:13:51 10° E visible
01 Feb 2.1 10:00:39 38° E 10:00:39 38° E 10:03:17 10° E visible
01 Feb 0.9 11:36:22 10° W 11:40:27 60° N 11:44:32 10° ENE visible
02 Feb 2.8 09:50:46 27° E 09:50:46 27° E 09:52:42 10° ENE visible
02 Feb 1.0 11:26:07 12° W 11:29:53 58° N 11:33:57 10° ENE visible
03 Feb 3.3 09:40:51 19° ENE 09:40:51 19° ENE 09:42:07 10° ENE visible
03 Feb 1.0 11:16:11 16° WNW 11:19:19 57° N 11:23:23 10° E visible
04 Feb 3.7 09:30:52 14° ENE 09:30:52 14° ENE 09:31:31 10° ENE visible
04 Feb 1.0 11:06:13 21° WNW 11:08:46 58° N 11:12:49 10° E visible
05 Feb 4.1 09:20:52 10° ENE 09:20:52 10° ENE 09:20:55 10° ENE visible
05 Feb 0.9 10:56:12 28° WNW 10:58:12 61° N 11:02:16 10° E visible
